[[{"header":{"parameterUnit":"m.s-1","parameterCategory":1,"la1":30.2991,"la2":30.254,"lo1":-89.0895,"lo2":-89.0444,"dy":0.0017,"dx":0.0017,"nx":28,"ny":28,"refTime":"2024-07-08T21:00:00:Z","depth":0,"parameterNumber":2,"parameterNumberName":"U-component_of_WINDS"},"data":[0,0,0,0,0,0,0,0,0,0,0,0,0,0,0,0,0,0,0,0,0,0,0,0,0,0,0,0,0,0,0,0,0,0,0,0,0,0,0,0,0,0,0,0,0,0,0,0,0,0,0,0,0,0,0,0,0,0,4.4014,4.4015,0,4.4084,4.4085,4.4085,4.4031,4.4029,4.4026,4.4024,4.4092,4.4096,4.41,0,0,0,0,0,0,0,0,0,0,0,0,0,4.3828,4.3832,4.4014,4.4015,4.4016,4.4084,4.4085,4.4086,4.4031,4.4029,4.4026,4.4023,4.4091,4.4095,4.41,0,0,0,0,0,0,0,0,0,0,0,0,0,4.3904,4.3833,4.4014,4.3997,4.3996,4.4084,4.4085,4.4086,4.4032,4.4029,4.4025,4.4022,4.4089,4.4095,4.4101,4.4207,0,0,4.4119,4.4121,0,0,0,0,0,0,0,0,4.39,4.3911,4.3999,4.3998,4.3998,4.4045,4.4044,4.4126,4.4033,4.4018,4.4024,4.402,4.4079,4.4085,4.4106,4.421,4.4213,4.4119,4.4123,4.4126,4.4127,0,0,0,0,0,0,0,4.3895,4.3908,4.4041,4.4,4.3999,4.3984,4.3991,4.4059,4.4067,4.4019,4.4016,4.4025,4.4078,4.41,4.4107,4.4214,4.4119,4.4124,4.4128,4.413,4.4404,4.4407,0,0,0,0,0,0,4.3892,4.3904,4.4039,4.4044,4.3939,4.399,4.3998,4.4033,4.4066,4.4068,4.4028,4.4022,4.4092,4.41,4.4109,4.4232,4.4125,4.4131,4.4134,4.44,4.4405,4.4409,0,0,0,0,0,0,4.3888,4.3905,4.4036,4.3973,4.3988,4.3997,4.4037,4.4037,4.4059,4.4073,4.4073,4.405,4.409,4.4101,4.4182,4.4234,4.4134,4.4139,4.4396,4.4402,4.4407,4.4482,0,0,0,0,0,0,4.3883,4.3904,4.3946,4.3974,4.3992,4.411,4.4041,4.404,4.407,4.4063,4.4093,4.4095,4.4088,4.4174,4.4188,4.424,4.4144,4.4391,4.4398,4.4405,4.4474,4.4489,4.4501,0,0,0,0,0,4.3877,4.3964,4.3948,4.3965,4.4045,4.4113,4.4123,4.4114,4.4075,4.4115,4.4123,4.4094,4.4227,4.4183,4.4198,4.4253,4.4388,4.4396,4.4404,4.4468,4.4486,4.4501,0,0,0,0,0,0,4.3941,4.3968,4.395,4.405,4.408,4.4104,4.4156,4.4134,4.4175,4.4167,4.4153,4.416,4.4244,4.4257,4.4208,4.4355,4.4301,4.4312,4.4344,4.4361,4.4374,4.4368,4.4149,0,0,0,0,0,4.3967,4.4022,4.4042,4.4128,4.4144,4.4147,4.4177,4.4167,4.4197,4.4209,4.4223,4.4252,4.4299,4.4331,4.4376,4.4477,4.448,4.4522,4.4536,4.4547,4.4556,4.4606,4.4623,4.4436,4.4436,4.4436,0,0,4.4021,4.4042,4.4078,4.4141,4.4163,4.4217,4.4158,4.422,4.4259,4.4218,4.4294,4.4306,4.4337,4.4427,4.4468,4.444,4.4609,4.4557,4.4566,4.4569,4.4616,4.4634,4.4649,4.4442,4.4441,4.444,0,0,4.4146,4.417,4.4241,4.4264,4.4298,4.43,4.4317,4.4345,4.4351,4.4428,4.4397,4.4443,4.4527,4.4549,4.4571,4.4702,4.4675,4.4717,4.4786,4.4835,4.4849,4.4862,4.4905,4.4921,4.4727,4.4727,4.4727,0,4.4208,4.429,4.4281,4.4343,4.437,4.4337,4.4407,4.443,4.4477,4.4495,4.4465,4.4566,4.4585,4.4678,4.4709,4.473,4.4747,4.4712,4.4849,4.4861,4.4873,4.4913,4.493,4.4732,4.4731,4.4731,4.473,0,4.4362,4.442,4.4474,4.452,4.4553,4.462,4.4618,4.4653,4.464,4.4644,4.472,4.4742,4.4788,4.4811,4.4799,4.4901,4.4882,4.4851,4.4794,4.4896,4.4933,4.4949,4.4739,4.4737,4.4735,4.4734,0,0,4.4529,4.4568,4.4587,4.4606,4.464,4.4683,4.4747,4.4793,4.4821,4.4855,4.4905,4.4976,4.4946,4.4971,4.4961,4.5005,4.5101,4.4967,4.4967,4.4988,4.521,4.5231,4.5249,4.5085,4.5088,4.509,4.5206,0,4.4653,4.4764,4.4756,4.4861,4.4911,4.4879,4.4934,4.4959,4.4964,4.5006,4.5011,4.506,4.5019,4.5033,4.5075,4.5081,4.5145,4.5073,4.5128,4.513,4.5118,4.5269,4.5292,4.54,4.5221,4.5223,4.5225,0,4.4812,4.4849,4.4959,4.4982,4.5003,4.5052,4.5092,4.5134,4.5161,4.5161,4.5189,4.5171,4.5232,4.5177,4.5259,4.521,4.5232,4.5238,4.5242,4.5244,4.5181,4.5272,4.5435,4.545,4.5249,4.5247,4.5245,0,4.4917,4.4996,4.507,4.5087,4.5118,4.5152,4.5166,4.519,4.5217,4.5252,4.5269,4.531,4.5332,4.5364,4.5356,4.5318,4.5438,4.5384,4.5437,4.5437,4.5462,4.546,4.5627,4.5483,4.5482,4.5482,4.5482,0,4.5053,4.512,4.5117,4.5162,4.5235,4.5225,4.5297,4.5306,4.5327,4.5372,4.5348,4.5389,4.5379,4.542,4.5415,4.5481,4.5493,4.5492,4.5489,4.5492,4.5492,4.5504,4.5495,4.5486,4.5485,4.5485,4.5484,0,4.5182,4.5183,4.5261,4.5283,4.529,4.5342,4.536,4.5401,4.5404,4.5461,4.5473,4.5477,4.5524,4.5521,4.5574,4.557,4.565,4.5641,4.5641,4.5638,4.569,4.5683,4.5868,4.589,4.5735,4.5737,4.5738,0,4.5267,4.5317,4.5344,4.5373,4.5389,4.5435,4.5463,4.5454,4.5483,4.5516,4.5553,4.5597,4.5632,4.5708,4.5714,4.5754,4.5742,4.5804,4.5748,4.5748,4.5738,4.5733,4.5736,4.5814,4.5816,4.5817,4.5819,0,4.5416,4.5414,4.5455,4.5495,4.5528,4.556,4.5588,4.5613,4.5606,4.564,4.5688,4.5715,4.5768,4.5811,4.5848,4.586,4.5837,4.5837,4.585,4.5852,4.5848,4.5847,4.5667,4.5832,4.583,4.5829,4.5829,4.5828,4.5523,4.5565,4.5589,4.5634,4.5655,4.5682,4.572,4.5728,4.5768,4.5811,4.5803,4.5855,4.5878,4.5926,4.5941,4.598,4.5958,4.5979,4.5983,4.5988,4.5992,4.5845,4.5988,4.5987,4.5987,4.5987,4.5986,0,4.5667,4.5681,4.5723,4.5763,4.5798,4.5775,4.5805,4.5835,4.5881,4.5905,4.594,4.5993,4.6034,4.6043,4.6082,4.6112,4.6102,4.6122,4.6117,4.612,4.6012,4.5994,4.6129,4.6129,4.6129,4.6129,4.6129,4.6129,4.5746,4.5814,4.5814,4.5891,4.5904,4.5955,4.5974,4.5997,4.6015,4.6076,4.611,4.6116,4.6133,4.6173,4.6208,4.621,4.6223,4.6247,4.6244,4.6142,4.6128,4.6114,4.6097,4.6251,4.6251,4.6348,4.6349,4.6349]},{"header":{"parameterUnit":"m.s-1","parameterCategory":1,"la1":30.2991,"la2":30.254,"lo1":-89.0895,"lo2":-89.0444,"dy":0.0017,"dx":0.0017,"nx":28,"ny":28,"refTime":"2024-07-08T21:00:00:Z","depth":0,"parameterNumber":3,"parameterNumberName":"V-component_of_WINDS"},"data":[0,0,0,0,0,0,0,0,0,0,0,0,0,0,0,0,0,0,0,0,0,0,0,0,0,0,0,0,0,0,0,0,0,0,0,0,0,0,0,0,0,0,0,0,0,0,0,0,0,0,0,0,0,0,0,0,0,0,6.8812,6.8813,0,6.8897,6.8898,6.8899,6.8838,6.8836,6.8833,6.883,6.8911,6.8916,6.892,0,0,0,0,0,0,0,0,0,0,0,0,0,6.8588,6.8593,6.8812,6.8813,6.8814,6.8897,6.8898,6.8899,6.8839,6.8835,6.8832,6.8829,6.891,6.8915,6.8921,0,0,0,0,0,0,0,0,0,0,0,0,0,6.8681,6.8594,6.8812,6.8794,6.8793,6.8897,6.8898,6.89,6.8839,6.8835,6.8831,6.8828,6.8908,6.8915,6.8922,6.9046,0,0,6.8943,6.8946,0,0,0,0,0,0,0,0,6.8676,6.8689,6.8796,6.8795,6.8795,6.8853,6.8849,6.8948,6.884,6.8822,6.883,6.8826,6.8895,6.8903,6.8927,6.9049,6.9053,6.8944,6.8948,6.8951,6.8953,0,0,0,0,0,0,0,6.8669,6.8685,6.8845,6.8797,6.8797,6.8779,6.8788,6.8868,6.888,6.8823,6.8819,6.883,6.8894,6.8921,6.8929,6.9054,6.8943,6.895,6.8954,6.8957,6.9278,6.9283,0,0,0,0,0,0,6.8665,6.868,6.8843,6.8848,6.8724,6.8786,6.8796,6.8838,6.8879,6.8881,6.8833,6.8827,6.8911,6.8921,6.8931,6.9077,6.8951,6.8957,6.8961,6.9274,6.9279,6.9284,0,0,0,0,0,0,6.8661,6.8681,6.8839,6.8763,6.8782,6.8795,6.8842,6.8842,6.8869,6.8887,6.8888,6.8859,6.8908,6.8921,6.9017,6.9079,6.8961,6.8967,6.9269,6.9276,6.9282,6.937,0,0,0,0,0,0,6.8655,6.8679,6.8729,6.8765,6.8786,6.8927,6.8846,6.8847,6.8882,6.8874,6.8911,6.8913,6.8906,6.9007,6.9024,6.9086,6.8972,6.9263,6.9272,6.928,6.9362,6.9379,6.9394,0,0,0,0,0,6.8647,6.8749,6.8731,6.8751,6.8848,6.893,6.8942,6.8934,6.8887,6.8935,6.8946,6.8912,6.907,6.9018,6.9036,6.9101,6.9259,6.927,6.9279,6.9355,6.9376,6.9393,0,0,0,0,0,0,6.8718,6.8754,6.8734,6.8852,6.8889,6.892,6.898,6.8956,6.9005,6.8996,6.8981,6.899,6.909,6.9105,6.9046,6.9222,6.9157,6.9171,6.9208,6.9228,6.9244,6.9237,6.8978,0,0,0,0,0,6.8748,6.8814,6.8841,6.8942,6.8961,6.8968,6.9003,6.8993,6.903,6.9045,6.9062,6.9097,6.9154,6.9192,6.9246,6.9364,6.9369,6.9418,6.9434,6.9447,6.9458,6.9519,6.954,6.9316,6.9316,6.9316,0,0,6.881,6.8837,6.888,6.8957,6.8984,6.905,6.8981,6.9054,6.9102,6.9055,6.9146,6.9161,6.9198,6.9305,6.9353,6.9321,6.9521,6.9459,6.9469,6.9474,6.9531,6.9552,6.9571,6.9323,6.9322,6.9321,0,0,6.8955,6.8984,6.907,6.9099,6.9142,6.9145,6.9166,6.9201,6.9209,6.9301,6.9266,6.9321,6.9421,6.9448,6.9475,6.963,6.9599,6.9647,6.973,6.9789,6.9807,6.9822,6.9874,6.9894,6.9659,6.9659,6.966,0,6.9025,6.9126,6.9117,6.9193,6.9226,6.9188,6.9273,6.9301,6.9358,6.9381,6.9345,6.9467,6.949,6.9602,6.9639,6.9663,6.9684,6.9642,6.9805,6.9821,6.9835,6.9885,6.9905,6.9665,6.9664,6.9664,6.9663,0,6.9209,6.9279,6.9342,6.94,6.9441,6.9521,6.9522,6.9563,6.955,6.9556,6.9648,6.9674,6.9732,6.9757,6.9744,6.9867,6.9845,6.9808,6.9742,6.9862,6.9908,6.9927,6.9673,6.9671,6.9669,6.9668,0,0,6.9401,6.9453,6.9476,6.9501,6.9545,6.9597,6.9674,6.9732,6.9766,6.9807,6.9869,6.9953,6.9918,6.9949,6.9938,6.9991,7.0108,6.9946,6.9947,6.9973,7.024,7.0267,7.029,7.0088,7.0092,7.0095,7.0236,0,6.9547,6.9684,6.9677,6.9803,6.9866,6.983,6.9896,6.9929,6.9936,6.9988,6.9996,7.0055,7.0006,7.0024,7.0074,7.0083,7.0161,7.0073,7.0143,7.0145,7.0133,7.0314,7.0343,7.0476,7.0255,7.0258,7.026,0,6.9736,6.9784,6.9917,6.995,6.9976,7.0036,7.0087,7.0138,7.0173,7.0174,7.0208,7.0188,7.0263,7.0196,7.0297,7.0237,7.0265,7.0274,7.0279,7.0283,7.0209,7.0321,7.0518,7.0537,7.0289,7.0287,7.0285,0,6.986,6.9958,7.005,7.0072,7.0113,7.0156,7.0174,7.0205,7.024,7.0283,7.0305,7.0356,7.0384,7.0423,7.0416,7.0369,7.0517,7.0451,7.0518,7.0518,7.055,7.0547,7.0751,7.0572,7.0571,7.0571,7.057,0,7.0022,7.0105,7.0106,7.0162,7.0252,7.0242,7.0331,7.0344,7.0372,7.0428,7.0399,7.0452,7.0441,7.0492,7.0488,7.057,7.0583,7.0584,7.0581,7.0586,7.0585,7.0602,7.0592,7.0576,7.0575,7.0574,7.0573,0,7.0176,7.018,7.0278,7.0308,7.0318,7.0383,7.0407,7.0459,7.0464,7.0535,7.0551,7.0558,7.0617,7.0615,7.0682,7.0678,7.0779,7.0766,7.0767,7.0764,7.083,7.0823,7.1051,7.1079,7.0883,7.0885,7.0886,0,7.0278,7.0341,7.0379,7.0415,7.0437,7.0496,7.0531,7.0523,7.0559,7.0603,7.0649,7.0705,7.075,7.0845,7.0855,7.0905,7.0892,7.0968,7.0899,7.0901,7.089,7.0886,7.0891,7.0981,7.0983,7.0985,7.0987,0,7.0459,7.0458,7.0511,7.0564,7.0607,7.0648,7.0685,7.0716,7.0712,7.0754,7.0815,7.085,7.0918,7.0973,7.1021,7.1037,7.101,7.1009,7.1026,7.103,7.1028,7.1028,7.0802,7.1003,7.1001,7.1,7.0999,7.0999,7.0588,7.0641,7.0676,7.0735,7.0762,7.0798,7.0847,7.0859,7.091,7.0966,7.0958,7.1025,7.1055,7.1117,7.1137,7.1188,7.116,7.1186,7.1193,7.1199,7.1205,7.1021,7.1196,7.1196,7.1196,7.1195,7.1195,0,7.0765,7.0786,7.084,7.0894,7.094,7.0913,7.0953,7.0992,7.1052,7.1084,7.1129,7.1197,7.125,7.1264,7.1315,7.1352,7.1341,7.1365,7.1361,7.1365,7.1228,7.1207,7.1373,7.1373,7.1373,7.1373,7.1373,7.1373,7.0863,7.095,7.0953,7.1052,7.1071,7.1139,7.1163,7.1194,7.1219,7.1298,7.1343,7.1352,7.1375,7.1427,7.1474,7.1476,7.1495,7.1524,7.1521,7.1393,7.1375,7.1358,7.1337,7.1529,7.1529,7.1654,7.1655,7.1656]}]]